Location: Pedholt
(56.0260°N, 10.2097°E)
Time: 19:25:41
(UTC+00:00)

SR - Pass Details

Date: 29 July 2021
Orbit: 581 x 873 km, 66.7° (Epoch: 27 September)

Event Time Altitude Azimuth Distance (km) Brightness Sun altitude
Rises 11:25:42 0° 302° (WNW) 3,305 ? 52.6°
Reaches altitude 10° 11:28:34 10° 314° (NW) 2,324 ? 52.6°
Maximum altitude 11:33:04 27° 12° (NNE) 1,374 ? 52.6°
Drops below altitude 10° 11:37:17 10° 71° (ENE) 2,151 ? 52.5°
Sets 11:39:50 0° 84° (E) 3,015 ? 52.5°
